Location: Appeville
(49.3218°N, 1.3427°W)
Time: 09:19:39
(UTC+00:00)

DMSP B5D1-3 - Pass Details

Date: 08 December 2019
Orbit: 766 x 781 km, 98.5° (Epoch: 28 January)

Event Time Altitude Azimuth Distance (km) Brightness Sun altitude
Rises 05:58:40 0° 172° (S) 3,252 8.1 -16.8°
Reaches altitude 10° 06:01:00 10° 175° (S) 2,330 7.3 -16.4°
Maximum altitude 06:06:07 66° 257° (WSW) 853 4.5 -15.6°
Drops below altitude 10° 06:11:16 10° 341° (NNW) 2,349 6.7 -14.8°
Enters shadow 06:12:29 - 342° (NNW) 2,828 7.1 -14.6°
